Location: Newark
(41.8083°N, 72.2500°W)
Time: 01:20:11
(UTC+00:00)

Vanguard 1 Rocket - Pass Details

Date: 10 December 2021
Orbit: 651 x 4224 km, 34.3° (Epoch: 15 January)

Event Time Altitude Azimuth Distance (km) Brightness Sun altitude
Exits shadow 08:33:29 60° 209° (SSW) 2,573 9.3 -38.6°
Maximum altitude 08:35:03 62° 183° (S) 2,663 9.5 -38.4°
Drops below altitude 10° 08:55:10 10° 110° (ESE) 6,878 12.6 -34.6°
Sets 09:01:26 0° 108° (ESE) 8,224 13.3 -33.4°
